Coston Home Weather Station

Constructed by Sean Coston

Feb 17 2019 20:06:46

Current temperature, daily max/min Current temperature, daily max/min






Coston Home Weather Station

Constructed by Sean Coston

Feb 17 2019 20:06:46

Average of Temperature Sensors: 30.05 degr F ----- Feb 17 2019 20:06:40

Humidity: 99.9 % ----- Feb 17 2019 20:06:40

Heat Index: 27.81 degr F ----- Feb 17 2019 20:06:40

Barometric Pressure: 29.4841 in Hg ----- Feb 17 2019 20:06:40

Solar Global Horizontal Irradiance: 0.03 W/m^2 ----- Feb 17 2019 20:06:40

UV Index: 0.03 out of 16 ----- Feb 17 2019 20:06:40

Current Wind Speed: 0.62 MPH ----- Feb 17 2019 20:06:36

Current Wind Direction: 186.33 degrees ----- Feb 17 2019 20:06:36

BMP180 Temperature: 30.13 degr F ----- Feb 17 2019 20:06:40

DHT22 Temperature: 30.38 degr F ----- Feb 17 2019 20:06:40

Dallas 18-B20 Temperature: 29.64 degr F ----- Feb 17 2019 20:06:40

Last Measured Rain - inches: 0.032 inches ----- Dec 20 2018 17:10:08

Wind Speed - 2 min avg: 0.97 MPH ----- Feb 17 2019 20:06:40

Wind Direction - 2 min avg: 185.87 degrees ----- Feb 17 2019 20:06:40

Gust Speed - last 1 min: 1.49 MPH ----- Feb 17 2019 20:06:40

Gust Direction - last 1 min: 184.85 degrees ----- Feb 17 2019 20:06:40

Voltage-In: 12.34 volts ----- Feb 17 2019 20:00:12

Max Temp today: 44.54 degr F seen at Feb 17 2019 13:57:51

Low Temp today: 20.52 degr F seen at Feb 17 2019 05:35:34

Max Temp yesterday: degr F seen at Dec 31 1969 17:00:00

Low Temp yesterday: degr F seen at Dec 31 1969 17:00:00

Max Heat Index today: 41.94 degr F seen at Feb 17 2019 13:57:51

Low Heat Index today: 17.52 degr F seen at Feb 17 2019 05:35:34

Max Heat Index yesterday: degr F seen at Dec 31 1969 17:00:00

Low Heat Index yesterday: degr F seen at Dec 31 1969 17:00:00

Last 24 hr average atm Pressure: 29.44 in Hg

Last Hour average atm Pressure: 29.473 in Hg

Rain - last 5 minutes: 0 inches

Rain - last 15 minutes: 0 inches

Rain - last 1 hour: 0 inches

Rain - today: 0 inches

Rain - yesterday: 0 inches